Location: Brabourne
(51.1333°N, 1.0000°E)
Time: 12:52:59
(UTC+00:00)

ADEOS Rocket - Visible Passes

Search period start: 23 October 2021 00:00
Search period end: 02 November 2021 00:00
Orbit: 859 x 1306 km, 98.8° (Epoch: 22 October)

Date Brightness Start Highest point End Pass type
(mag) Time Alt. Az. Time Alt. Az. Time Alt. Az.
23 Oct 5.3 00:49:45 21° N 00:49:45 21° N 00:51:45 10° NNW visible
23 Oct 5.6 02:36:43 11° NNW 02:36:43 11° NNW 02:36:56 10° NNW visible
23 Oct 5.8 22:13:16 11° NNE 22:13:16 11° NNE 22:14:26 10° NNE visible
24 Oct 5.4 00:00:14 20° N 00:00:14 20° N 00:02:20 10° N visible
24 Oct 5.5 01:47:12 15° NNW 01:47:12 15° NNW 01:48:15 10° NNW visible
24 Oct 5.6 23:10:43 16° NNE 23:10:43 16° NNE 23:12:37 10° N visible
25 Oct 5.5 00:57:41 18° N 00:57:41 18° N 00:59:09 10° NNW visible
25 Oct 5.8 22:21:12 11° NNE 22:21:12 11° NNE 22:22:09 10° NNE visible
26 Oct 5.5 00:08:09 18° N 00:08:09 18° N 00:09:47 10° N visible
26 Oct 5.6 01:55:07 12° NNW 01:55:07 12° NNW 01:55:35 10° NNW visible
26 Oct 5.7 23:18:38 15° NNE 23:18:38 15° NNE 23:20:06 10° N visible
27 Oct 5.6 01:05:35 15° NNW 01:05:35 15° NNW 01:06:33 10° NNW visible
27 Oct 5.8 22:29:05 11° NNE 22:29:05 11° NNE 22:29:47 10° NNE visible
28 Oct 5.6 00:16:03 16° N 00:16:03 16° N 00:17:12 10° N visible
28 Oct 5.7 23:26:31 14° N 23:26:31 14° N 23:27:34 10° N visible
29 Oct 5.7 01:13:28 12° NNW 01:13:28 12° NNW 01:13:55 10° NNW visible
29 Oct 5.8 22:36:59 11° NNE 22:36:59 11° NNE 22:37:22 10° NNE visible
30 Oct 5.7 00:23:56 13° N 00:23:56 13° N 00:24:37 10° N visible
30 Oct 5.8 23:34:24 12° N 23:34:24 12° N 23:35:00 10° N visible
31 Oct 5.9 22:44:51 10° NNE 22:44:51 10° NNE 22:44:55 10° NNE visible
01 Nov 5.8 00:31:49 11° N 00:31:49 11° N 00:32:00 10° N visible
01 Nov 5.9 23:42:15 11° N 23:42:15 11° N 23:42:27 10° N visible
